sat.trackr.live / text

‹ back to catalog

STARLINK-32558

NORAD 62169 · 2024-225G

PAYLOAD ACTIVE UNKNOWN

§ Identity

Operator
Country
US
Launch date
2024-11-30
Launch site
AFWTR
Launch vehicle
Mass (kg)
RCS (m²)

Purposes: comms

External: N2YO · Heavens-Above · Gunter

§ Orbital elements

Epoch: 2026-09-21T22:00:03.000096Z

Period
95.79 min
Inclination
70.0018°
Eccentricity
0.0004238
Mean motion
15.03224350 rev/d
Perigee alt
554.0 km
Apogee alt
559.9 km
Semi-major
6,935.1 km
B*
5.1067e-4
RAAN
29.7477°
Arg perigee
275.8864°
Mean anomaly
204.4210°
Rev number
577

§ Raw data

STARLINK-325581 62169U 24225G   26264.91670139  .00006836  00000+0  51067-3 0  99992 62169  70.0018  29.7477 0004238 275.8864 204.4210 15.03224350  5772

JSON: /api/v1/satellites/62169 · /tle

For live sub-satellite position, see the globe view (requires WebGL).

§ Visibility from observer

Set your observer location to see the next 7 days of passes ≥ 10°. The values pass through the URL so the page stays shareable.

No JS? Fill the form by hand. The geolocation button needs JavaScript.